Погода в Кайластуе

Россия / Забайкальский край     49°49′53″N   118°24′00″E
темп.,
°C
ветер,
м/с
пор.,
м/с
влажн.,
%
обл.,
%
осадки,
мм/ч
давл.,
гПа
погр.,
м
21 июня, пн
пн2100:00+13св338959 0.0 100840
03:00+12св339293 0.0 100941
06:00+11св3494100 0.0 101194
09:00+16всв457884 0.0 1011528
12:00+21всв345522 0.1 10111505
15:00+23в234130 0.1 10092252
18:00+20в3361100 0.0 100965
21:00+18вюв0165100 0.0 101011
22 июня, вт
вт2200:00+18вюв1162100 0.0 101111
03:00+17в1165100 0.0 101111
06:00+17вюв0070100 0.0 101211
09:00+20ю225888 0.0 1012392
12:00+23зюз224982 0.0 10111282
15:00+25зюз333915 0.0 10101741
18:00+24с224117 0.0 10101743
21:00+19в33635 0.0 101024
23 июня, ср
ср2300:00+17ю226410 0.0 101115
03:00+16ю226672 0.0 101113
06:00+17ю226535 0.0 101131
09:00+21юз11548 0.0 1011478
12:00+25юз124012 0.0 10101623
15:00+26юв213464 0.0 10082628
18:00+26ссв434013 0.0 10081199
21:00+21всв45645 0.0 100880
24 июня, чт
чт2400:00+18в226699 0.0 100914
03:00+17в226691 0.0 100811
06:00+17в22697 0.0 100814
09:00+21всв33575 0.0 1007431
12:00+26юв344117 0.0 10051175
15:00+29ююз233248 0.0 10032832
18:00+29ю233320 0.0 10012282
21:00+21ссв45605 0.0 100292
25 июня, пт
пт2500:00+17св477898 0.0 1003158
03:00+16св348863 0.6 100375
06:00+15св349125 0.1 1003111
09:00+20св22705 0.1 1003473
12:00+24ссв21536 0.0 10021171
15:00+27ссз444598 0.1 10012053
18:00+25ссз56490 0.0 10001095
21:00+21св46710 0.0 100195